METEOR 2-7 DEB

Satellite information

Favourite Embed

Satellite Type and Status

DEBRISIN ORBIT

Key statistics

Satellite METEOR 2-7 DEB at a glance.

Uptime

16066

Days in orbit

Revolutions

≈ 14.5

Per day

Orbit

LEO

Low Earth Orbit

Inclination

81.3

Latest

Satellite identification and parameters

Extended collection of information and parameters for METEOR 2-7 DEB.

Object identification

Identified? True

Debris? True

Object name: METEOR 2-7 DEB

International designator: 1981-043E

Object number (NORAD): 28388

Object ID (CCSDS): 28388

Country: COMMONWEALTH OF INDEPENDENT STATES (CIS)

Current information (Y/N): Y

RCS size: SMALL

Orbital parameters

Period: 99.362 minutes

Inclination: 81.2669 deg

SMA: 7106.257 km

Apoapsis: 741.959 km

Periapsis: 714.285 km

RAAN: 352.6438 deg

Eccentricy: 0.0019472

Argument of periapsis: 173.6991 deg

Mean anomaly: 186.445 deg

Mean motion: 14.49243669 rev/day

Mean motion (dot): 0.00002474 rev/day2

B* drag term: 0.0006442 1/REarth

Two-line elements (TLE)

Creation date: May 8, 2025, 3:01 a.m.

Reference frame: TEME

Reference center: EARTH

Epoch: May 7, 2025, 9:15 p.m. UTC

TLE line 0: 0 METEOR 2-7 DEB

TLE line 1: 1 28388U 81043E 25127.88584937 .00002474 00000-0 64420-3 0 9990

TLE line 2: 2 28388 81.2669 352.6438 0019472 173.6991 186.4450 14.49243669589236

Live tracking on map

Real-time ground track for satellite METEOR 2-7 DEB.

In-orbit conjunctions

A list of the most updated potential collisions computed for object METEOR 2-7 DEB.

Target Orbit TCA Probability of collision Miss distance Type
FENGYUN 1C DEB SSO 2024-10-20 21:47:58 0.0001231426 25.0 (m) DEBRIS
COSMOS 1954 LEO 2024-09-21 16:08:03 0.0001028231 125.0 (m) PAYLOAD

Associated space launch

Second generation soviet meteorological satellite

METEOR 2-7 DEB was lifted into orbit during the mission ‘Vostok 8A92M | Meteor-2 7’, on board a Vostok 8A92M space rocket.

The launch took place on May 14, 1981, 9:45 p.m. from 43/3 (43L).

For more information about the launch, click the button.

Launch to space Vostok 8A92M | Meteor-2 7
Vostok 8A92M | Meteor-2 7

Agency: N/A

Status: Launch Successful

Launch date: May 14, 1981, 9:45 p.m. UTC

Rocket: Vostok 8A92M

Launch pad: 43/3 (43L)

Location: Plesetsk Cosmodrome, Russian Federation

...

Latest news about this satellite

There are no fresh news available about this satellite. Check back as we update our databases every day.


Newsletter sign-up

Weekly statistics, charts and insights to help you stay on top of the space industry.